DELTA 1 DEB

基本信息
目录编号:
10646
目录名称:
DELTA 1 DEB
国际标识:
1976-077G
轨道中心:
EARTH
物体状态:
在轨
发射日期:
1976-07-29 UTC
轨道信息
数据来源: 国际轨道数据
星历时间: 2026-09-13T20:02:44+0800
半长轴: 7994.862km
偏心率: 0.0143348
轨道倾角: 102.665°
近地点辐角: 213.578°
升交点赤经: 207.267°
平近点角: 264.155°
近地点: 1502.12km
远地点: 1731.33km
周期: 118.570分钟
每日圈数: 12.144687
详细信息
发射场:
AFWTR
轨道高度:
LEO
数据来源:
AOE Integration Group
参考系:
TEME
时间系统:
UTC
历元类型:
SGP4
2D轨道图
3D轨道图
轨道高度分析图
轨道倾角分析图
轨道综合分析图
查看轨道综合分析图